Location: Milo
(50.5667°N, 112.8833°W)
Time: 13:28:51
(UTC+00:00)

ISS - Visible Passes

Search period start: 01 December 2021 00:00
Search period end: 11 December 2021 00:00
Orbit: 417 x 423 km, 51.6° (Epoch: 01 December)

Date Brightness Start Highest point End Pass type
(mag) Time Alt. Az. Time Alt. Az. Time Alt. Az.
01 Dec -3.7 00:38:42 10° W 00:42:07 71° N 00:44:34 17° E visible
01 Dec -1.9 02:15:36 10° WNW 02:17:34 31° W 02:17:34 31° W visible
02 Dec -3.8 01:28:24 10° WNW 01:31:49 86° SSW 01:32:21 61° ESE visible
03 Dec -3.8 00:41:12 10° WNW 00:44:37 81° N 00:47:13 16° E visible
03 Dec -1.7 02:18:08 10° W 02:20:12 28° WSW 02:20:12 28° WSW visible
04 Dec -3.1 01:30:52 10° WNW 01:34:12 51° SSW 01:35:10 36° SSE visible
05 Dec -3.5 00:43:38 10° WNW 00:47:01 68° SSW 00:50:16 11° ESE visible
05 Dec -1.2 02:20:59 10° W 02:23:16 18° SW 02:23:16 18° SW visible
06 Dec -1.7 01:33:28 10° W 01:36:22 26° SW 01:38:34 14° SSE visible
07 Dec -2.2 00:46:05 10° W 00:49:16 36° SSW 00:52:25 10° SE visible
08 Dec -0.6 01:36:51 10° WSW 01:38:19 12° SW 01:39:48 10° SSW visible
09 Dec -0.8 00:48:54 10° W 00:51:17 18° SW 00:53:41 10° S visible
